UAE412 OMDB-YSSY

Flight info

Callsign UAE412
Flight time N/A
Altitude 31000
Route ANVIX L223 TARDI N629 GIDAN P570 EMURU M300 VASTU P895 CIA/N0506F330 P895 BIKOK M641 DOGAR DCT DAOVO DCT PIBED DCT 09S094E 10S095E/N0497F350 DCT POROR DCT 19S106E 21S109E DCT ATLOD DCT ISDOR DCT LST/N0481F370 DCT FRT DCT ENTRE DCT CDU J149 WHA J21 BORLI H205 CULIN Y59 RIVET
Aircraft B77W/H-SDE1E2E3FGHIJ2J3J4J5M1RWXY/LB1D1

Departure

Time 2026-05-05 14:58
Airport Dubai International Airport (OMDB)

Arrival

Time N/A
Airport Sydney Kingsford Smith International Airport (YSSY)
Time Latitude Longitude Altitude Speed Heading
2026-05-05 13:48 25.24639 55.36655 30 ft 0 kts 276°
2026-05-05 14:36 25.24638 55.36659 31 ft 3 kts 276°
2026-05-05 14:37 25.24636 55.36689 30 ft 4 kts 276°
2026-05-05 14:37 25.24633 55.36713 31 ft 4 kts 278°
2026-05-05 14:37 25.24624 55.36737 31 ft 4 kts 332°
2026-05-05 14:37 25.24601 55.36741 31 ft 4 kts 22°
2026-05-05 14:38 25.24578 55.36727 31 ft 4 kts 31°
2026-05-05 14:38 25.24560 55.36715 31 ft 0 kts 31°
2026-05-05 14:42 25.24561 55.36715 26 ft 1 kts 31°
2026-05-05 14:43 25.24581 55.36729 30 ft 4 kts 31°
2026-05-05 14:43 25.24606 55.36745 28 ft 4 kts 31°
2026-05-05 14:43 25.24630 55.36761 29 ft 4 kts 31°
2026-05-05 14:43 25.24654 55.36777 31 ft 4 kts 31°
2026-05-05 14:44 25.24678 55.36794 31 ft 4 kts 31°
2026-05-05 14:44 25.24702 55.36810 29 ft 4 kts 31°
2026-05-05 14:44 25.24735 55.36824 29 ft 7 kts
2026-05-05 14:44 25.24770 55.36789 30 ft 8 kts 291°
2026-05-05 14:45 25.24783 55.36731 29 ft 8 kts 282°
2026-05-05 14:45 25.24797 55.36675 29 ft 8 kts 287°
2026-05-05 14:45 25.24811 55.36635 29 ft 5 kts 293°
2026-05-05 14:45 25.24827 55.36599 29 ft 5 kts 298°
2026-05-05 14:46 25.24846 55.36563 29 ft 6 kts 301°
2026-05-05 14:46 25.24882 55.36499 29 ft 14 kts 302°
2026-05-05 14:46 25.24938 55.36401 31 ft 15 kts 302°
2026-05-05 14:46 25.24993 55.36304 31 ft 15 kts 302°
2026-05-05 14:47 25.25048 55.36205 31 ft 15 kts 302°
2026-05-05 14:47 25.25104 55.36106 27 ft 15 kts 302°
2026-05-05 14:47 25.25160 55.36008 29 ft 15 kts 302°
2026-05-05 14:47 25.25215 55.35909 29 ft 15 kts 301°
2026-05-05 14:48 25.25270 55.35810 30 ft 15 kts 301°
2026-05-05 14:48 25.25326 55.35711 31 ft 15 kts 302°
2026-05-05 14:48 25.25381 55.35613 31 ft 15 kts 302°
2026-05-05 14:48 25.25436 55.35515 29 ft 15 kts 301°
2026-05-05 14:49 25.25491 55.35417 29 ft 15 kts 302°
2026-05-05 14:49 25.25545 55.35322 29 ft 13 kts 302°
2026-05-05 14:49 25.25592 55.35239 30 ft 12 kts 301°
2026-05-05 14:49 25.25631 55.35170 30 ft 10 kts 306°
2026-05-05 14:50 25.25697 55.35166 29 ft 10 kts 26°
2026-05-05 14:50 25.25759 55.35208 29 ft 10 kts 31°
2026-05-05 14:50 25.25822 55.35250 28 ft 11 kts 31°
2026-05-05 14:50 25.25893 55.35298 30 ft 13 kts 31°
2026-05-05 14:51 25.25967 55.35354 31 ft 13 kts 45°
2026-05-05 14:51 25.26005 55.35444 29 ft 13 kts 81°
2026-05-05 14:51 25.25992 55.35542 26 ft 13 kts 112°
2026-05-05 14:51 25.25948 55.35631 26 ft 13 kts 121°
2026-05-05 14:52 25.25900 55.35716 28 ft 13 kts 122°
2026-05-05 14:52 25.25851 55.35801 26 ft 14 kts 122°
2026-05-05 14:52 25.25788 55.35913 27 ft 21 kts 122°
2026-05-05 14:52 25.25704 55.36061 27 ft 23 kts 122°
2026-05-05 14:53 25.25620 55.36211 27 ft 23 kts 122°
2026-05-05 14:53 25.25536 55.36360 27 ft 23 kts 122°
2026-05-05 14:53 25.25481 55.36459 27 ft 23 kts 122°
2026-05-05 14:53 25.25369 55.36657 31 ft 23 kts 122°
2026-05-05 14:54 25.25286 55.36806 27 ft 23 kts 122°
2026-05-05 14:54 25.25202 55.36956 27 ft 23 kts 122°
2026-05-05 14:54 25.25118 55.37105 28 ft 23 kts 122°
2026-05-05 14:54 25.25034 55.37254 28 ft 23 kts 122°
2026-05-05 14:55 25.24949 55.37404 28 ft 23 kts 122°
2026-05-05 14:55 25.24894 55.37503 28 ft 23 kts 122°
2026-05-05 14:55 25.24817 55.37639 27 ft 16 kts 122°
2026-05-05 14:55 25.24759 55.37743 27 ft 14 kts 122°
2026-05-05 14:56 25.24723 55.37806 27 ft 9 kts 122°
2026-05-05 14:56 25.24690 55.37864 27 ft 8 kts 122°
2026-05-05 14:56 25.24666 55.37918 27 ft 8 kts 99°
2026-05-05 14:56 25.24692 55.37970 27 ft 8 kts 40°
2026-05-05 14:57 25.24738 55.38004 29 ft 8 kts 28°
2026-05-05 14:57 25.24801 55.38007 30 ft 12 kts 337°
2026-05-05 14:57 25.24860 55.37928 30 ft 20 kts 301°
2026-05-05 14:57 25.25038 55.37608 31 ft 82 kts 301°
2026-05-05 14:58 25.25451 55.36868 29 ft 143 kts 301°
2026-05-05 14:58 25.26055 55.35788 31 ft 189 kts 302°
2026-05-05 14:58 25.26771 55.34543 419 ft 192 kts 304°
2026-05-05 14:58 25.27477 55.33247 733 ft 202 kts 303°
2026-05-05 14:59 25.28162 55.31858 1083 ft 209 kts 300°
2026-05-05 14:59 25.28841 55.30381 1397 ft 218 kts 295°
2026-05-05 14:59 25.29071 55.28697 1719 ft 227 kts 264°
2026-05-05 14:59 25.28630 55.27051 2148 ft 221 kts 245°
2026-05-05 15:00 25.27945 55.25531 2497 ft 221 kts 243°
2026-05-05 15:00 25.27485 55.24528 2719 ft 221 kts 244°
2026-05-05 15:00 25.26569 55.22496 3149 ft 221 kts 244°
2026-05-05 15:00 25.25890 55.20970 3413 ft 225 kts 244°
2026-05-05 15:01 25.25200 55.19383 3576 ft 234 kts 245°
2026-05-05 15:01 25.24472 55.17749 3726 ft 240 kts 233°
2026-05-05 15:01 25.23132 55.16691 3869 ft 243 kts 192°
2026-05-05 15:01 25.21464 55.16650 4044 ft 247 kts 173°
2026-05-05 15:02 25.19743 55.16881 4321 ft 252 kts 163°
2026-05-05 15:02 25.18238 55.17856 4519 ft 257 kts 129°
2026-05-05 15:02 25.17311 55.19543 4801 ft 260 kts 117°
2026-05-05 15:02 25.16457 55.21331 5173 ft 267 kts 117°
2026-05-05 15:03 25.15580 55.23164 5585 ft 273 kts 117°
2026-05-05 15:03 25.14686 55.25029 6004 ft 279 kts 118°
2026-05-05 15:03 25.13773 55.26934 6548 ft 280 kts 117°
2026-05-05 15:03 25.12854 55.28851 6970 ft 285 kts 117°
2026-05-05 15:04 25.11930 55.30774 7430 ft 289 kts 118°
2026-05-05 15:04 25.10983 55.32742 7910 ft 291 kts 118°
2026-05-05 15:04 25.10080 55.34754 8403 ft 294 kts 115°
2026-05-05 15:04 25.09240 55.36825 8875 ft 297 kts 114°
2026-05-05 15:05 25.07532 55.41027 9828 ft 302 kts 115°
2026-05-05 15:05 25.06684 55.43154 10261 ft 306 kts 113°
2026-05-05 15:05 25.05833 55.45376 10405 ft 323 kts 113°
2026-05-05 15:06 25.04938 55.47722 10542 ft 340 kts 113°
2026-05-05 15:06 25.03993 55.50188 10678 ft 358 kts 113°
2026-05-05 15:06 25.03000 55.52769 10831 ft 374 kts 114°
2026-05-05 15:06 25.01961 55.55448 11136 ft 384 kts 115°
2026-05-05 15:07 25.00724 55.58078 11583 ft 390 kts 121°
2026-05-05 15:07 24.99288 55.60631 12155 ft 393 kts 123°
2026-05-05 15:07 24.97818 55.63187 12775 ft 395 kts 122°
2026-05-05 15:07 24.96375 55.65779 13360 ft 398 kts 121°
2026-05-05 15:08 24.94945 55.68410 13893 ft 402 kts 121°
2026-05-05 15:08 24.93477 55.71051 14354 ft 406 kts 123°
2026-05-05 15:08 24.91840 55.73595 14777 ft 407 kts 127°
2026-05-05 15:08 24.90123 55.76101 14773 ft 413 kts 127°
2026-05-05 15:09 24.88383 55.78634 15108 ft 416 kts 127°
2026-05-05 15:09 24.86653 55.81202 15603 ft 419 kts 126°
2026-05-05 15:09 24.84929 55.83795 16210 ft 420 kts 126°
2026-05-05 15:09 24.83195 55.86402 16670 ft 424 kts 126°
2026-05-05 15:10 24.81429 55.89025 17079 ft 430 kts 127°
2026-05-05 15:10 24.79634 55.91678 17533 ft 434 kts 127°
2026-05-05 15:10 24.77798 55.94337 17999 ft 436 kts 130°
2026-05-05 15:10 24.75676 55.96737 18437 ft 439 kts 138°
2026-05-05 15:11 24.73366 55.98954 18847 ft 443 kts 139°
2026-05-05 15:11 24.71054 56.01196 19306 ft 445 kts 138°
2026-05-05 15:11 24.68803 56.03470 19911 ft 442 kts 137°
2026-05-05 15:11 24.66551 56.05787 20328 ft 447 kts 137°
2026-05-05 15:12 24.64252 56.08152 20606 ft 453 kts 137°
2026-05-05 15:12 24.61934 56.10528 20958 ft 459 kts 137°
2026-05-05 15:12 24.59591 56.12925 21388 ft 461 kts 137°
2026-05-05 15:12 24.57256 56.15350 21842 ft 463 kts 135°
2026-05-05 15:13 24.55049 56.17968 22147 ft 467 kts 131°
2026-05-05 15:13 24.52936 56.20693 22525 ft 471 kts 130°
2026-05-05 15:13 24.50815 56.23453 22945 ft 473 kts 130°
2026-05-05 15:13 24.48708 56.26181 23356 ft 475 kts 130°
2026-05-05 15:14 24.46559 56.28942 23688 ft 477 kts 131°
2026-05-05 15:14 24.44385 56.31718 23922 ft 482 kts 131°
2026-05-05 15:14 24.42187 56.34513 24155 ft 485 kts 131°
2026-05-05 15:14 24.39971 56.37325 24444 ft 487 kts 131°
2026-05-05 15:15 24.37751 56.40142 24742 ft 489 kts 131°
2026-05-05 15:15 24.35522 56.42970 25039 ft 491 kts 131°
2026-05-05 15:15 24.33280 56.45814 25314 ft 494 kts 132°
2026-05-05 15:15 24.31030 56.48666 25597 ft 496 kts 132°
2026-05-05 15:16 24.28836 56.51599 25866 ft 499 kts 128°
2026-05-05 15:16 24.26787 56.54678 26129 ft 501 kts 127°
2026-05-05 15:16 24.24747 56.57790 26387 ft 504 kts 127°
2026-05-05 15:16 24.22699 56.60915 26644 ft 506 kts 127°
2026-05-05 15:17 24.20636 56.64048 26909 ft 508 kts 127°
2026-05-05 15:17 24.18557 56.67191 27178 ft 510 kts 127°
2026-05-05 15:17 24.16464 56.70342 27441 ft 512 kts 127°
2026-05-05 15:17 24.14387 56.73463 27691 ft 514 kts 127°
2026-05-05 15:18 24.12271 56.76639 27929 ft 517 kts 127°
2026-05-05 15:18 24.10151 56.79821 28148 ft 519 kts 128°
2026-05-05 15:18 24.08018 56.83022 28391 ft 521 kts 128°
2026-05-05 15:18 24.05879 56.86230 28618 ft 522 kts 128°
2026-05-05 15:19 24.03734 56.89446 28827 ft 523 kts 128°
2026-05-05 15:19 24.01579 56.92661 29032 ft 525 kts 128°
2026-05-05 15:19 23.99411 56.95882 29204 ft 527 kts 128°
2026-05-05 15:19 23.97231 56.99119 29395 ft 529 kts 128°
2026-05-05 15:20 23.95047 57.02363 29601 ft 529 kts 128°
2026-05-05 15:20 23.92864 57.05606 29857 ft 529 kts 128°
2026-05-05 15:20 23.90687 57.08840 30094 ft 528 kts 128°
2026-05-05 15:20 23.88510 57.12070 30334 ft 528 kts 128°
2026-05-05 15:21 23.86334 57.15304 30511 ft 528 kts 128°
2026-05-05 15:21 23.84187 57.18497 30701 ft 529 kts 128°
2026-05-05 15:21 23.82005 57.21742 30747 ft 531 kts 128°
2026-05-05 15:22 23.77641 57.28227 30794 ft 528 kts 128°
2026-05-05 15:22 23.73291 57.34681 30811 ft 526 kts 128°
2026-05-05 15:23 23.68875 57.41037 30805 ft 526 kts 130°
2026-05-05 15:23 23.64297 57.47264 30810 ft 525 kts 130°
2026-05-05 15:24 23.59729 57.53493 30803 ft 525 kts 130°
2026-05-05 15:24 23.55186 57.59748 30826 ft 526 kts 130°
2026-05-05 15:25 23.50642 57.66005 30812 ft 526 kts 130°
2026-05-05 15:25 23.46110 57.72218 30813 ft 527 kts 130°
2026-05-05 15:26 23.41539 57.78447 30838 ft 526 kts 130°
2026-05-05 15:26 23.36967 57.84673 30822 ft 526 kts 130°
2026-05-05 15:27 23.32413 57.90876 30820 ft 524 kts 130°
2026-05-05 15:27 23.27844 57.97090 30810 ft 525 kts 130°
2026-05-05 15:28 23.23378 58.03330 30814 ft 526 kts 126°
2026-05-05 15:28 23.19258 58.09900 30812 ft 526 kts 125°
2026-05-05 15:29 23.15144 58.16493 30814 ft 526 kts 125°
2026-05-05 15:29 23.11011 58.23047 30817 ft 526 kts 126°
2026-05-05 15:30 23.06859 58.29609 30820 ft 526 kts 126°
2026-05-05 15:30 23.02439 58.35861 30811 ft 524 kts 136°
2026-05-05 15:31 22.96904 58.40976 30828 ft 521 kts 148°
2026-05-05 15:31 22.90716 58.45035 30839 ft 519 kts 151°
2026-05-05 15:32 22.84506 58.49058 30834 ft 520 kts 150°
2026-05-05 15:32 22.78324 58.53138 30831 ft 520 kts 150°
2026-05-05 15:33 22.72197 58.57199 30837 ft 520 kts 150°
2026-05-05 15:33 22.66001 58.61293 30837 ft 520 kts 150°
2026-05-05 15:34 22.59826 58.65366 30841 ft 520 kts 150°
2026-05-05 15:34 22.53645 58.69442 30837 ft 519 kts 150°
2026-05-05 15:35 22.47513 58.73483 30847 ft 519 kts 150°
2026-05-05 15:35 22.41356 58.77537 30846 ft 518 kts 150°
2026-05-05 15:36 22.35199 58.81586 30850 ft 518 kts 150°
2026-05-05 15:36 22.29048 58.85627 30847 ft 517 kts 150°
2026-05-05 15:37 22.23211 58.90186 30850 ft 518 kts 139°
2026-05-05 15:37 22.18212 58.95799 30845 ft 520 kts 130°
2026-05-05 15:38 22.13631 59.01839 30845 ft 520 kts 130°
2026-05-05 15:38 22.09046 59.07853 30846 ft 519 kts 130°
2026-05-05 15:39 22.04453 59.13809 30843 ft 520 kts 130°
2026-05-05 15:39 21.99806 59.19805 30841 ft 522 kts 130°
2026-05-05 15:40 21.95145 59.25814 30838 ft 523 kts 130°
2026-05-05 15:40 21.90480 59.31824 30840 ft 523 kts 130°
2026-05-05 15:41 21.85807 59.37841 30829 ft 523 kts 130°
2026-05-05 15:41 21.81927 59.42831 30833 ft 522 kts 130°
2026-05-05 15:42 21.77267 59.48817 30828 ft 521 kts 130°
2026-05-05 15:42 21.72609 59.54796 30830 ft 521 kts 130°
2026-05-05 15:43 21.67983 59.60726 30825 ft 520 kts 130°
2026-05-05 15:43 21.63327 59.66688 30818 ft 521 kts 131°
2026-05-05 15:44 21.58665 59.72653 30823 ft 521 kts 131°
2026-05-05 15:44 21.53994 59.78618 30826 ft 522 kts 131°
2026-05-05 15:45 21.49297 59.84581 30828 ft 522 kts 131°
2026-05-05 15:45 21.44594 59.90543 30830 ft 523 kts 131°
2026-05-05 15:46 21.39917 59.96469 30822 ft 523 kts 131°
2026-05-05 15:46 21.35213 60.02427 30829 ft 523 kts 131°
2026-05-05 15:47 21.30502 60.08388 30829 ft 523 kts 131°
2026-05-05 15:47 21.25785 60.14349 30827 ft 523 kts 131°
2026-05-05 15:48 21.21078 60.20297 30833 ft 523 kts 131°
2026-05-05 15:48 21.16372 60.26252 30827 ft 523 kts 131°
2026-05-05 15:49 21.11662 60.32210 30835 ft 524 kts 131°
2026-05-05 15:49 21.06950 60.38162 30833 ft 524 kts 131°
2026-05-05 15:50 21.02237 60.44109 30842 ft 524 kts 131°
2026-05-05 15:50 20.97545 60.50022 30842 ft 524 kts 131°
2026-05-05 15:51 20.92814 60.55979 30835 ft 525 kts 131°
2026-05-05 15:51 20.88076 60.61937 30837 ft 525 kts 131°
2026-05-05 15:52 20.83337 60.67891 30840 ft 526 kts 131°
2026-05-05 15:52 20.78587 60.73853 30840 ft 526 kts 131°
2026-05-05 15:53 20.73838 60.79806 30841 ft 526 kts 131°
2026-05-05 15:53 20.69119 60.85717 30839 ft 526 kts 131°
2026-05-05 15:54 20.64366 60.91666 30845 ft 526 kts 131°
2026-05-05 15:54 20.59877 60.97830 30842 ft 527 kts 123°
2026-05-05 15:55 20.55973 61.04452 30852 ft 526 kts 122°
2026-05-05 15:55 20.52085 61.11072 30850 ft 527 kts 122°
2026-05-05 15:56 20.48155 61.17683 30845 ft 527 kts 122°
2026-05-05 15:56 20.44214 61.24266 30855 ft 527 kts 122°
2026-05-05 15:57 20.40265 61.30847 30856 ft 527 kts 122°
2026-05-05 15:57 20.36315 61.37428 30855 ft 527 kts 122°
2026-05-05 15:58 20.32389 61.43963 30852 ft 527 kts 122°
2026-05-05 15:58 20.28438 61.50534 30854 ft 527 kts 123°
2026-05-05 15:59 20.24485 61.57100 30855 ft 526 kts 122°
2026-05-05 15:59 20.20531 61.63661 30855 ft 526 kts 122°
2026-05-05 16:00 20.16573 61.70221 30852 ft 526 kts 122°
2026-05-05 16:00 20.12615 61.76773 30860 ft 526 kts 123°
2026-05-05 16:01 20.08679 61.83281 30862 ft 526 kts 123°
2026-05-05 16:01 20.04716 61.89827 30857 ft 526 kts 123°
2026-05-05 16:02 20.00752 61.96367 30856 ft 526 kts 122°
2026-05-05 16:02 19.96788 62.02901 30857 ft 526 kts 123°
2026-05-05 16:03 19.92823 62.09428 30863 ft 526 kts 123°
2026-05-05 16:03 19.88858 62.15949 30858 ft 525 kts 123°
2026-05-05 16:04 19.84884 62.22477 30859 ft 525 kts 123°
2026-05-05 16:04 19.80910 62.28997 30857 ft 526 kts 123°
2026-05-05 16:05 19.76958 62.35475 30858 ft 526 kts 123°
2026-05-05 16:05 19.72982 62.41985 30867 ft 526 kts 123°
2026-05-05 16:06 19.69003 62.48493 30867 ft 526 kts 123°
2026-05-05 16:06 19.65016 62.55007 30867 ft 526 kts 123°
2026-05-05 16:07 19.61027 62.61517 30863 ft 526 kts 123°
2026-05-05 16:07 19.57039 62.68018 30867 ft 526 kts 123°
2026-05-05 16:08 19.53051 62.74512 30863 ft 525 kts 123°
2026-05-05 16:08 19.49059 62.81005 30869 ft 525 kts 123°
2026-05-05 16:09 19.45066 62.87495 30867 ft 525 kts 123°
2026-05-05 16:09 19.41098 62.93936 30865 ft 525 kts 123°
2026-05-05 16:10 19.37102 63.00415 30868 ft 525 kts 123°
2026-05-05 16:10 19.33108 63.06884 30873 ft 525 kts 123°
2026-05-05 16:11 19.29107 63.13358 30868 ft 525 kts 123°
2026-05-05 16:12 19.21138 63.26234 30870 ft 524 kts 123°
2026-05-05 16:13 19.11145 63.42340 30883 ft 523 kts 123°
2026-05-05 16:13 19.07148 63.48772 30874 ft 523 kts 123°
2026-05-05 16:14 18.99152 63.61619 30883 ft 523 kts 123°
2026-05-05 16:15 18.91175 63.74404 30887 ft 523 kts 123°
2026-05-05 16:16 18.83156 63.87239 30881 ft 522 kts 123°
2026-05-05 16:17 18.77169 63.96804 30888 ft 522 kts 123°
2026-05-05 16:18 18.71162 64.06387 30900 ft 522 kts 123°
2026-05-05 16:19 18.65148 64.15966 30890 ft 522 kts 123°
2026-05-05 16:19 18.59124 64.25546 30892 ft 522 kts 123°
2026-05-05 16:20 18.51099 64.38288 30893 ft 521 kts 123°
2026-05-05 16:22 18.41083 64.54152 30891 ft 521 kts 123°
2026-05-05 16:23 18.27556 64.75518 30907 ft 523 kts 123°
2026-05-05 16:24 18.23516 64.81886 30904 ft 524 kts 123°
2026-05-05 16:25 18.17461 64.91417 30906 ft 523 kts 123°
2026-05-05 16:25 18.11399 65.00946 30903 ft 521 kts 123°
2026-05-05 16:26 18.03378 65.13532 30897 ft 518 kts 123°
2026-05-05 16:27 17.99371 65.19810 30901 ft 517 kts 123°
2026-05-05 16:27 17.95366 65.26080 30901 ft 516 kts 123°
2026-05-05 16:28 17.91362 65.32342 30903 ft 517 kts 123°
2026-05-05 16:28 17.87344 65.38620 30896 ft 517 kts 123°
2026-05-05 16:29 17.83360 65.44838 30901 ft 516 kts 123°
2026-05-05 16:29 17.79350 65.51092 30904 ft 517 kts 123°
2026-05-05 16:30 17.75330 65.57357 30903 ft 518 kts 123°
2026-05-05 16:30 17.71297 65.63635 30904 ft 519 kts 123°
2026-05-05 16:31 17.67261 65.69912 30900 ft 519 kts 123°
2026-05-05 16:31 17.63227 65.76182 30900 ft 518 kts 123°
2026-05-05 16:32 17.59232 65.82467 30900 ft 518 kts 122°
2026-05-05 16:32 17.55337 65.88807 30900 ft 517 kts 122°
2026-05-05 16:33 17.51453 65.95154 30905 ft 516 kts 122°
2026-05-05 16:33 17.47587 66.01435 30903 ft 516 kts 122°
2026-05-05 16:34 17.43679 66.07758 30904 ft 516 kts 122°
2026-05-05 16:34 17.39771 66.14070 30903 ft 516 kts 122°
2026-05-05 16:35 17.35865 66.20375 30904 ft 516 kts 122°
2026-05-05 16:35 17.31957 66.26679 30905 ft 516 kts 122°
2026-05-05 16:36 17.28046 66.32983 30905 ft 516 kts 122°
2026-05-05 16:36 17.24130 66.39288 30905 ft 516 kts 122°
2026-05-05 16:37 17.20216 66.45585 30904 ft 516 kts 122°
2026-05-05 16:37 17.16320 66.51845 30904 ft 516 kts 122°
2026-05-05 16:38 17.12399 66.58142 30904 ft 516 kts 123°
2026-05-05 16:38 17.08480 66.64429 30904 ft 516 kts 123°
2026-05-05 16:39 17.04554 66.70722 30907 ft 516 kts 123°
2026-05-05 16:39 17.00631 66.77004 30906 ft 516 kts 123°
2026-05-05 16:40 16.96732 66.83241 30904 ft 516 kts 123°
2026-05-05 16:40 16.92810 66.89511 30904 ft 516 kts 123°
2026-05-05 16:41 16.88881 66.95784 30904 ft 516 kts 123°
2026-05-05 16:41 16.84952 67.02054 30905 ft 516 kts 123°
2026-05-05 16:42 16.81021 67.08320 30907 ft 516 kts 123°
2026-05-05 16:42 16.77116 67.14540 30907 ft 516 kts 123°
2026-05-05 16:43 16.73182 67.20800 30908 ft 516 kts 123°
2026-05-05 16:43 16.69243 67.27062 30907 ft 516 kts 123°
2026-05-05 16:44 16.65302 67.33323 30904 ft 516 kts 123°
2026-05-05 16:44 16.61363 67.39574 30904 ft 516 kts 123°
2026-05-05 16:45 16.57422 67.45822 30907 ft 516 kts 123°
2026-05-05 16:45 16.53475 67.52076 30908 ft 516 kts 123°
2026-05-05 16:46 16.49560 67.58273 30907 ft 516 kts 123°
2026-05-05 16:46 16.45612 67.64517 30908 ft 516 kts 123°
2026-05-05 16:47 16.41663 67.70756 30907 ft 515 kts 123°
2026-05-05 16:47 16.37718 67.76986 30907 ft 515 kts 123°
2026-05-05 16:48 16.33762 67.83226 30907 ft 515 kts 123°
2026-05-05 16:48 16.29811 67.89455 30908 ft 515 kts 123°
2026-05-05 16:49 16.25861 67.95678 30907 ft 515 kts 123°
2026-05-05 16:49 16.21930 68.01918 30907 ft 515 kts 123°
2026-05-05 16:50 16.18038 68.08113 30887 ft 512 kts 123°
2026-05-05 16:50 16.14129 68.14327 30908 ft 513 kts 123°
2026-05-05 16:51 16.10206 68.20552 30913 ft 514 kts 123°
2026-05-05 16:51 16.06277 68.26781 30910 ft 515 kts 123°
2026-05-05 16:52 16.02337 68.33021 30906 ft 516 kts 123°
2026-05-05 16:52 15.98398 68.39253 30909 ft 516 kts 123°
2026-05-05 16:53 15.94484 68.45441 30905 ft 515 kts 123°
2026-05-05 16:53 15.90544 68.51666 30909 ft 515 kts 123°
2026-05-05 16:54 15.86607 68.57880 30908 ft 515 kts 123°
2026-05-05 16:54 15.82669 68.64091 30908 ft 514 kts 123°
2026-05-05 16:55 15.78734 68.70291 30910 ft 514 kts 123°
2026-05-05 16:55 15.74798 68.76488 30908 ft 514 kts 123°
2026-05-05 16:56 15.70862 68.82681 30912 ft 514 kts 123°
2026-05-05 16:56 15.66944 68.88839 30904 ft 514 kts 123°
2026-05-05 16:57 15.62996 68.95040 30910 ft 514 kts 123°
2026-05-05 16:57 15.59057 69.01221 30907 ft 514 kts 123°
2026-05-05 16:58 15.55115 69.07402 30906 ft 513 kts 123°
2026-05-05 16:58 15.51175 69.13576 30907 ft 512 kts 123°
2026-05-05 16:59 15.47244 69.19729 30909 ft 512 kts 123°
2026-05-05 16:59 15.43308 69.25886 30906 ft 512 kts 123°
2026-05-05 17:00 15.39391 69.32008 30910 ft 512 kts 123°
2026-05-05 17:00 15.35451 69.38161 30910 ft 512 kts 123°
2026-05-05 17:01 15.31509 69.44311 30911 ft 512 kts 123°
2026-05-05 17:01 15.27569 69.50455 30893 ft 512 kts 122°
2026-05-05 17:02 15.23633 69.56589 30910 ft 511 kts 123°
2026-05-05 17:02 15.19694 69.62720 30906 ft 511 kts 123°
2026-05-05 17:03 15.15755 69.68850 30909 ft 511 kts 123°
2026-05-05 17:03 15.11808 69.74984 30905 ft 512 kts 123°
2026-05-05 17:04 15.07912 69.81091 30910 ft 512 kts 122°
2026-05-05 17:04 15.04009 69.87249 30909 ft 511 kts 122°
2026-05-05 17:05 15.00099 69.93413 30911 ft 511 kts 123°
2026-05-05 17:05 14.96200 69.99547 30907 ft 510 kts 123°
2026-05-05 17:06 14.92958 70.04638 30909 ft 510 kts 123°
2026-05-05 17:06 14.89058 70.10761 30906 ft 510 kts 123°
2026-05-05 17:07 14.85152 70.16889 30905 ft 510 kts 123°
2026-05-05 17:07 14.81245 70.23012 30899 ft 510 kts 123°
2026-05-05 17:08 14.77333 70.29140 30911 ft 510 kts 123°
2026-05-05 17:08 14.73423 70.35259 30908 ft 510 kts 123°
2026-05-05 17:09 14.69542 70.41328 30907 ft 508 kts 123°
2026-05-05 17:09 14.65641 70.47425 30888 ft 507 kts 123°
2026-05-05 17:10 14.61749 70.53502 30905 ft 507 kts 123°
2026-05-05 17:10 14.57861 70.59569 30909 ft 506 kts 123°
2026-05-05 17:11 14.53971 70.65634 30903 ft 507 kts 123°
2026-05-05 17:11 14.50102 70.71663 30900 ft 507 kts 123°
2026-05-05 17:12 14.46198 70.77740 30905 ft 508 kts 123°
2026-05-05 17:12 14.42288 70.83825 30891 ft 508 kts 123°
2026-05-05 17:13 14.38376 70.89908 30904 ft 509 kts 123°
2026-05-05 17:13 14.34463 70.95989 30904 ft 509 kts 123°
2026-05-05 17:14 14.30587 71.02104 30903 ft 509 kts 122°
2026-05-05 17:14 14.26730 71.08232 30887 ft 509 kts 123°
2026-05-05 17:15 14.22872 71.14349 30899 ft 509 kts 123°
2026-05-05 17:15 14.19004 71.20467 30901 ft 509 kts 122°
2026-05-05 17:16 14.15164 71.26530 30902 ft 508 kts 122°
2026-05-05 17:16 14.11303 71.32624 30902 ft 507 kts 123°
2026-05-05 17:17 14.07443 71.38712 30883 ft 506 kts 123°
2026-05-05 17:17 14.03592 71.44782 30885 ft 506 kts 122°
2026-05-05 17:18 13.99739 71.50851 30901 ft 506 kts 123°
2026-05-05 17:18 13.95885 71.56917 30898 ft 506 kts 123°
2026-05-05 17:19 13.92031 71.62978 30903 ft 506 kts 123°
2026-05-05 17:19 13.88172 71.69043 30891 ft 506 kts 122°
2026-05-05 17:20 13.84311 71.75107 30891 ft 506 kts 123°
2026-05-05 17:20 13.80481 71.81117 30888 ft 505 kts 122°
2026-05-05 17:21 13.76631 71.87157 30887 ft 504 kts 122°
2026-05-05 17:22 13.70870 71.96187 30888 ft 503 kts 122°